WZZ655G LGKR-LOWI

Flight info

Callsign WZZ655G
Flight time N/A
Altitude 36000
Route OLGAT DCT LUMAR DCT AIOSA DCT ZDA DCT GIMIX DCT NANIT NANIT2A
Aircraft A320/M-SDE3FGHIRWY/LB1

Departure

Time 2026-04-29 19:21
Airport Corfu Ioannis Kapodistrias International Airport (LGKR)

Arrival

Time N/A
Airport Innsbruck Airport (LOWI)
Time Latitude Longitude Altitude Speed Heading
2026-04-29 18:52 39.60706 19.91349 19 ft 0 kts 79°
2026-04-29 19:11 39.60703 19.91329 18 ft 4 kts 79°
2026-04-29 19:11 39.60698 19.91295 20 ft 4 kts 81°
2026-04-29 19:11 39.60695 19.91260 22 ft 4 kts 92°
2026-04-29 19:11 39.60699 19.91227 20 ft 4 kts 123°
2026-04-29 19:12 39.60712 19.91213 21 ft 1 kts 168°
2026-04-29 19:12 39.60715 19.91212 20 ft 0 kts 168°
2026-04-29 19:15 39.60714 19.91212 20 ft 1 kts 168°
2026-04-29 19:15 39.60702 19.91215 19 ft 3 kts 168°
2026-04-29 19:16 39.60677 19.91222 20 ft 5 kts 168°
2026-04-29 19:16 39.60639 19.91232 18 ft 6 kts 172°
2026-04-29 19:16 39.60593 19.91211 20 ft 8 kts 217°
2026-04-29 19:16 39.60538 19.91167 18 ft 10 kts 206°
2026-04-29 19:17 39.60462 19.91145 21 ft 14 kts 176°
2026-04-29 19:17 39.60342 19.91175 21 ft 21 kts 168°
2026-04-29 19:17 39.60181 19.91216 23 ft 25 kts 168°
2026-04-29 19:17 39.60007 19.91263 21 ft 26 kts 168°
2026-04-29 19:18 39.59823 19.91311 22 ft 28 kts 169°
2026-04-29 19:18 39.59693 19.91342 20 ft 30 kts 169°
2026-04-29 19:18 39.59412 19.91413 17 ft 30 kts 170°
2026-04-29 19:18 39.59266 19.91449 17 ft 14 kts 162°
2026-04-29 19:19 39.59188 19.91506 17 ft 5 kts 143°
2026-04-29 19:19 39.59171 19.91491 19 ft 3 kts 298°
2026-04-29 19:19 39.59194 19.91473 17 ft 5 kts 342°
2026-04-29 19:19 39.59224 19.91464 20 ft 0 kts 349°
2026-04-29 19:20 39.59227 19.91463 20 ft 3 kts 349°
2026-04-29 19:20 39.59460 19.91404 18 ft 71 kts 349°
2026-04-29 19:21 39.60152 19.91225 22 ft 129 kts 349°
2026-04-29 19:21 39.61148 19.90952 255 ft 152 kts 348°
2026-04-29 19:21 39.62183 19.90700 814 ft 151 kts 348°
2026-04-29 19:21 39.63216 19.90447 1300 ft 153 kts 348°
2026-04-29 19:22 39.64325 19.90135 1474 ft 174 kts 338°
2026-04-29 19:22 39.65328 19.89193 1629 ft 192 kts 306°
2026-04-29 19:22 39.65818 19.87498 1765 ft 211 kts 271°
2026-04-29 19:22 39.65789 19.85586 2247 ft 217 kts 268°
2026-04-29 19:23 39.65755 19.83625 3089 ft 217 kts 268°
2026-04-29 19:23 39.65726 19.81665 3899 ft 218 kts 268°
2026-04-29 19:23 39.65860 19.79701 4684 ft 222 kts 286°
2026-04-29 19:23 39.66596 19.77919 5315 ft 235 kts 310°
2026-04-29 19:24 39.67793 19.76310 5697 ft 259 kts 313°
2026-04-29 19:24 39.69094 19.74600 6386 ft 270 kts 314°
2026-04-29 19:24 39.70421 19.72853 7199 ft 273 kts 313°
2026-04-29 19:24 39.71759 19.71082 8050 ft 276 kts 313°
2026-04-29 19:25 39.73109 19.69287 8901 ft 279 kts 313°
2026-04-29 19:25 39.74468 19.67474 9750 ft 281 kts 313°
2026-04-29 19:25 39.75972 19.65823 10449 ft 290 kts 326°
2026-04-29 19:25 39.77756 19.64400 10683 ft 313 kts 327°
2026-04-29 19:26 39.79674 19.62911 11112 ft 326 kts 328°
2026-04-29 19:26 39.81643 19.61403 11769 ft 330 kts 328°
2026-04-29 19:26 39.83640 19.59878 12463 ft 334 kts 328°
2026-04-29 19:26 39.85652 19.58337 13156 ft 338 kts 328°
2026-04-29 19:27 39.87686 19.56770 13854 ft 341 kts 327°
2026-04-29 19:27 39.89732 19.55186 14452 ft 344 kts 327°
2026-04-29 19:27 39.91772 19.53603 15049 ft 347 kts 327°
2026-04-29 19:27 39.93877 19.51968 15661 ft 350 kts 327°
2026-04-29 19:28 39.95947 19.50363 16259 ft 352 kts 327°
2026-04-29 19:28 39.98062 19.48722 16868 ft 355 kts 327°
2026-04-29 19:28 40.00188 19.47071 17465 ft 357 kts 327°
2026-04-29 19:28 40.02332 19.45405 18068 ft 360 kts 327°
2026-04-29 19:29 40.04492 19.43722 18633 ft 363 kts 327°
2026-04-29 19:29 40.06664 19.42024 19164 ft 365 kts 327°
2026-04-29 19:29 40.08851 19.40313 19686 ft 368 kts 327°
2026-04-29 19:29 40.11059 19.38586 20237 ft 371 kts 327°
2026-04-29 19:30 40.13282 19.36850 20748 ft 374 kts 327°
2026-04-29 19:30 40.15522 19.35099 21247 ft 376 kts 326°
2026-04-29 19:30 40.17774 19.33332 21736 ft 379 kts 326°
2026-04-29 19:30 40.20041 19.31551 22217 ft 381 kts 326°
2026-04-29 19:31 40.22324 19.29759 22704 ft 384 kts 326°
2026-04-29 19:31 40.24621 19.27955 23188 ft 386 kts 326°
2026-04-29 19:31 40.26908 19.26163 23660 ft 389 kts 326°
2026-04-29 19:31 40.29239 19.24336 24051 ft 392 kts 326°
2026-04-29 19:32 40.31612 19.22474 24468 ft 394 kts 326°
2026-04-29 19:32 40.33930 19.20650 24871 ft 395 kts 326°
2026-04-29 19:32 40.36295 19.18788 25280 ft 397 kts 326°
2026-04-29 19:32 40.38668 19.16917 25676 ft 399 kts 326°
2026-04-29 19:33 40.41056 19.15036 26075 ft 401 kts 326°
2026-04-29 19:33 40.43455 19.13146 26472 ft 403 kts 326°
2026-04-29 19:33 40.45864 19.11247 26857 ft 405 kts 326°
2026-04-29 19:33 40.48283 19.09334 27240 ft 407 kts 326°
2026-04-29 19:34 40.50714 19.07408 27626 ft 409 kts 326°
2026-04-29 19:34 40.53157 19.05470 28000 ft 411 kts 326°
2026-04-29 19:34 40.55610 19.03519 28377 ft 413 kts 326°
2026-04-29 19:34 40.58070 19.01562 28746 ft 415 kts 326°
2026-04-29 19:35 40.60544 18.99593 29135 ft 417 kts 325°
2026-04-29 19:35 40.63036 18.97612 29517 ft 419 kts 326°
2026-04-29 19:35 40.65536 18.95625 29904 ft 421 kts 325°
2026-04-29 19:35 40.68050 18.93628 30243 ft 423 kts 325°
2026-04-29 19:36 40.70573 18.91620 30558 ft 425 kts 325°
2026-04-29 19:36 40.73070 18.89631 30865 ft 426 kts 326°
2026-04-29 19:36 40.75611 18.87608 31270 ft 425 kts 326°
2026-04-29 19:36 40.78135 18.85596 31740 ft 423 kts 325°
2026-04-29 19:37 40.80650 18.83583 32202 ft 422 kts 325°
2026-04-29 19:37 40.81494 18.82906 32356 ft 421 kts 325°
2026-04-29 19:37 40.85641 18.79572 33129 ft 418 kts 325°
2026-04-29 19:37 40.88125 18.77579 33574 ft 417 kts 325°
2026-04-29 19:38 40.90603 18.75594 34023 ft 416 kts 325°
2026-04-29 19:38 40.93076 18.73613 34412 ft 415 kts 325°
2026-04-29 19:38 40.95542 18.71633 34762 ft 414 kts 325°
2026-04-29 19:38 40.97998 18.69656 35103 ft 413 kts 325°
2026-04-29 19:39 40.99623 18.68346 35322 ft 413 kts 325°
2026-04-29 19:39 41.02074 18.66370 35648 ft 412 kts 325°
2026-04-29 19:39 41.04519 18.64398 35959 ft 412 kts 325°
2026-04-29 19:40 41.09413 18.60440 36050 ft 412 kts 325°
2026-04-29 19:40 41.14335 18.56455 36047 ft 421 kts 325°
2026-04-29 19:41 41.19406 18.52329 36047 ft 431 kts 325°
2026-04-29 19:41 41.24528 18.48173 36045 ft 432 kts 325°
2026-04-29 19:42 41.29651 18.44016 36039 ft 431 kts 325°
2026-04-29 19:42 41.34734 18.39878 36046 ft 431 kts 325°
2026-04-29 19:43 41.39850 18.35693 36045 ft 431 kts 325°
2026-04-29 19:43 41.44962 18.31509 36051 ft 431 kts 325°
2026-04-29 19:44 41.50078 18.27314 36052 ft 432 kts 324°
2026-04-29 19:44 41.55196 18.23108 36054 ft 432 kts 324°
2026-04-29 19:45 41.60306 18.18898 36052 ft 432 kts 324°
2026-04-29 19:45 41.65415 18.14685 36053 ft 431 kts 324°
2026-04-29 19:46 41.70526 18.10467 36056 ft 431 kts 324°
2026-04-29 19:46 41.75606 18.06273 36054 ft 431 kts 324°
2026-04-29 19:47 41.80709 18.02050 36055 ft 431 kts 324°
2026-04-29 19:47 41.85804 17.97808 36045 ft 430 kts 324°
2026-04-29 19:48 41.90892 17.93571 36047 ft 430 kts 324°
2026-04-29 19:48 41.95971 17.89336 36047 ft 430 kts 324°
2026-04-29 19:49 42.01051 17.85098 36047 ft 429 kts 324°
2026-04-29 19:49 42.06114 17.80856 36056 ft 429 kts 324°
2026-04-29 19:50 42.11173 17.76611 36051 ft 428 kts 324°
2026-04-29 19:50 42.16191 17.72391 36052 ft 428 kts 324°
2026-04-29 19:51 42.21246 17.68142 36055 ft 428 kts 324°
2026-04-29 19:51 42.26290 17.63887 36056 ft 428 kts 324°
2026-04-29 19:52 42.31332 17.59620 36058 ft 428 kts 324°
2026-04-29 19:52 42.36380 17.55345 36057 ft 427 kts 324°
2026-04-29 19:53 42.41417 17.51074 36060 ft 427 kts 324°
2026-04-29 19:53 42.46454 17.46800 36062 ft 427 kts 324°
2026-04-29 19:54 42.53959 17.40410 36063 ft 426 kts 324°
2026-04-29 19:54 42.58976 17.36117 36064 ft 426 kts 324°
2026-04-29 19:55 42.63982 17.31826 36064 ft 426 kts 323°
2026-04-29 19:55 42.68988 17.27529 36064 ft 425 kts 324°
2026-04-29 19:56 42.73995 17.23238 36063 ft 425 kts 324°
2026-04-29 19:56 42.78991 17.18932 36062 ft 425 kts 323°
2026-04-29 19:57 42.83143 17.15355 36064 ft 425 kts 323°
2026-04-29 19:57 42.88979 17.10310 36064 ft 424 kts 323°
2026-04-29 19:58 42.93959 17.05995 36065 ft 424 kts 323°
2026-04-29 19:58 42.98936 17.01666 36063 ft 424 kts 323°
2026-04-29 19:59 43.03915 16.97347 36066 ft 424 kts 324°
2026-04-29 19:59 43.08870 16.93054 36063 ft 424 kts 323°
2026-04-29 20:00 43.13840 16.88723 36068 ft 423 kts 323°
2026-04-29 20:00 43.18799 16.84374 36071 ft 423 kts 323°
2026-04-29 20:01 43.23754 16.80025 36073 ft 423 kts 323°
2026-04-29 20:01 43.28705 16.75677 36073 ft 423 kts 323°
2026-04-29 20:02 43.33658 16.71323 36070 ft 423 kts 323°
2026-04-29 20:02 43.37774 16.67701 36077 ft 422 kts 323°
2026-04-29 20:03 43.43560 16.62603 36084 ft 422 kts 323°
2026-04-29 20:03 43.48502 16.58237 36086 ft 422 kts 323°
2026-04-29 20:04 43.53407 16.53885 36085 ft 422 kts 323°
2026-04-29 20:04 43.58345 16.49499 36080 ft 422 kts 323°
2026-04-29 20:05 43.63276 16.45110 36084 ft 421 kts 323°
2026-04-29 20:05 43.68202 16.40721 36083 ft 421 kts 323°
2026-04-29 20:06 43.73127 16.36327 36085 ft 421 kts 323°
2026-04-29 20:06 43.78037 16.31926 36088 ft 420 kts 323°
2026-04-29 20:07 43.82947 16.27525 36095 ft 420 kts 323°
2026-04-29 20:07 43.87820 16.23145 36102 ft 420 kts 323°
2026-04-29 20:08 43.91923 16.19448 36103 ft 419 kts 323°
2026-04-29 20:08 43.97607 16.14309 36111 ft 420 kts 323°
2026-04-29 20:09 44.02497 16.09887 36117 ft 419 kts 322°
2026-04-29 20:09 44.07392 16.05451 36129 ft 419 kts 322°
2026-04-29 20:10 44.12275 16.01029 36127 ft 419 kts 322°
2026-04-29 20:10 44.17155 15.96595 36141 ft 418 kts 322°
2026-04-29 20:11 44.21995 15.92182 36135 ft 418 kts 322°
2026-04-29 20:11 44.26862 15.87740 36145 ft 418 kts 322°
2026-04-29 20:12 44.31721 15.83286 36157 ft 418 kts 322°
2026-04-29 20:12 44.36575 15.78835 36170 ft 418 kts 322°
2026-04-29 20:13 44.40615 15.75126 36180 ft 418 kts 322°
2026-04-29 20:13 44.46286 15.69907 36190 ft 417 kts 322°
2026-04-29 20:14 44.51133 15.65438 36196 ft 417 kts 322°
2026-04-29 20:14 44.55974 15.60964 36210 ft 417 kts 322°
2026-04-29 20:15 44.60812 15.56484 36215 ft 417 kts 322°
2026-04-29 20:15 44.65648 15.51999 36228 ft 416 kts 322°
2026-04-29 20:16 44.70476 15.47512 36230 ft 416 kts 322°
2026-04-29 20:16 44.75299 15.43020 36238 ft 415 kts 322°
2026-04-29 20:17 44.80112 15.38523 36240 ft 415 kts 322°
2026-04-29 20:17 44.84891 15.34049 36248 ft 414 kts 322°
2026-04-29 20:18 44.89683 15.29553 36243 ft 414 kts 322°
2026-04-29 20:18 44.94479 15.25052 36247 ft 413 kts 322°
2026-04-29 20:19 44.99261 15.20555 36247 ft 413 kts 322°
2026-04-29 20:19 45.04044 15.16042 36250 ft 413 kts 321°
2026-04-29 20:20 45.08812 15.11534 36247 ft 412 kts 321°
2026-04-29 20:20 45.13573 15.07022 36247 ft 412 kts 321°
2026-04-29 20:21 45.18324 15.02507 36240 ft 411 kts 321°
2026-04-29 20:21 45.23078 14.97984 36231 ft 411 kts 321°
2026-04-29 20:22 45.27818 14.93467 36228 ft 410 kts 321°
2026-04-29 20:22 45.32553 14.88946 36225 ft 410 kts 321°
2026-04-29 20:23 45.37283 14.84420 36223 ft 409 kts 321°
2026-04-29 20:23 45.42006 14.79899 36229 ft 409 kts 321°
2026-04-29 20:24 45.46719 14.75368 36233 ft 409 kts 321°
2026-04-29 20:24 45.51433 14.70825 36248 ft 409 kts 321°
2026-04-29 20:25 45.56138 14.66293 36239 ft 408 kts 321°
2026-04-29 20:25 45.60838 14.61753 36257 ft 407 kts 321°
2026-04-29 20:26 45.65523 14.57211 36246 ft 407 kts 321°
2026-04-29 20:26 45.70197 14.52668 36248 ft 406 kts 321°
2026-04-29 20:27 45.73298 14.49653 36248 ft 407 kts 321°
2026-04-29 20:27 45.79556 14.43564 36252 ft 407 kts 321°
2026-04-29 20:28 45.84206 14.39027 36249 ft 407 kts 321°
2026-04-29 20:28 45.88881 14.34444 36253 ft 407 kts 321°
2026-04-29 20:29 45.93557 14.29849 36259 ft 407 kts 321°
2026-04-29 20:29 45.98233 14.25255 36264 ft 408 kts 321°
2026-04-29 20:30 46.02923 14.20642 36265 ft 408 kts 321°
2026-04-29 20:30 46.06820 14.16803 36265 ft 409 kts 321°
2026-04-29 20:31 46.11503 14.12171 36226 ft 409 kts 321°
2026-04-29 20:31 46.16204 14.07509 36221 ft 410 kts 321°
2026-04-29 20:32 46.20916 14.02834 36211 ft 411 kts 322°
2026-04-29 20:32 46.25636 13.98141 35976 ft 414 kts 321°
2026-04-29 20:33 46.27986 13.95802 35817 ft 406 kts 321°
2026-04-29 20:33 46.30309 13.93490 35726 ft 406 kts 321°
2026-04-29 20:33 46.34939 13.88861 35549 ft 404 kts 321°
2026-04-29 20:34 46.39555 13.84221 35381 ft 403 kts 321°
2026-04-29 20:34 46.44155 13.79606 35207 ft 402 kts 321°
2026-04-29 20:35 46.48734 13.75012 35042 ft 400 kts 321°
2026-04-29 20:35 46.53135 13.70129 34868 ft 395 kts 312°
2026-04-29 20:36 46.56891 13.64327 34705 ft 393 kts 311°
2026-04-29 20:36 46.60651 13.58571 34536 ft 392 kts 311°
2026-04-29 20:37 46.64381 13.52848 34377 ft 392 kts 311°
2026-04-29 20:37 46.68120 13.47083 34215 ft 392 kts 311°
2026-04-29 20:38 46.71858 13.41300 34030 ft 391 kts 311°
2026-04-29 20:38 46.73723 13.38402 33929 ft 392 kts 311°
2026-04-29 20:38 46.75584 13.35505 33831 ft 392 kts 311°
2026-04-29 20:39 46.79315 13.29701 33636 ft 392 kts 311°
2026-04-29 20:39 46.83008 13.23950 33435 ft 373 kts 311°
2026-04-29 20:40 46.84736 13.21260 33354 ft 356 kts 311°
2026-04-29 20:40 46.86395 13.18672 33301 ft 342 kts 311°
2026-04-29 20:40 46.87987 13.16180 33209 ft 330 kts 311°
2026-04-29 20:40 46.89543 13.13743 33133 ft 326 kts 311°
2026-04-29 20:41 46.92620 13.08911 32980 ft 324 kts 311°
2026-04-29 20:41 46.95670 13.04128 32820 ft 323 kts 311°
2026-04-29 20:42 46.98694 12.99376 32652 ft 308 kts 311°
2026-04-29 20:42 47.00121 12.97127 32587 ft 296 kts 311°
2026-04-29 20:42 47.01495 12.94966 32516 ft 284 kts 311°
2026-04-29 20:43 47.02822 12.92872 32445 ft 279 kts 311°
2026-04-29 20:43 47.04132 12.90799 32375 ft 277 kts 311°
2026-04-29 20:43 47.05446 12.88721 32318 ft 277 kts 311°
2026-04-29 20:43 47.06753 12.86649 32249 ft 277 kts 312°
2026-04-29 20:44 47.08061 12.84576 32190 ft 277 kts 311°
2026-04-29 20:44 47.09369 12.82504 32132 ft 277 kts 312°
2026-04-29 20:44 47.10677 12.80427 32066 ft 277 kts 312°
2026-04-29 20:44 47.11984 12.78351 31992 ft 277 kts 312°
2026-04-29 20:45 47.13293 12.76272 31931 ft 277 kts 312°
2026-04-29 20:45 47.14604 12.74189 31867 ft 278 kts 312°
2026-04-29 20:45 47.15913 12.72107 31808 ft 278 kts 312°
2026-04-29 20:45 47.17222 12.70025 31745 ft 277 kts 312°
2026-04-29 20:46 47.18532 12.67939 31685 ft 277 kts 312°
2026-04-29 20:46 47.19840 12.65859 31615 ft 277 kts 312°
2026-04-29 20:46 47.21148 12.63782 31620 ft 277 kts 312°
2026-04-29 20:46 47.22455 12.61700 31546 ft 277 kts 312°
2026-04-29 20:47 47.23757 12.59619 31492 ft 277 kts 312°
2026-04-29 20:47 47.25059 12.57538 31415 ft 276 kts 313°
2026-04-29 20:47 47.26360 12.55455 31339 ft 276 kts 313°
2026-04-29 20:47 47.27664 12.53366 31272 ft 277 kts 313°
2026-04-29 20:48 47.28964 12.51280 31217 ft 277 kts 313°
2026-04-29 20:48 47.30264 12.49194 31069 ft 277 kts 312°
2026-04-29 20:48 47.31567 12.47100 30763 ft 274 kts 313°
2026-04-29 20:48 47.32830 12.45064 30487 ft 264 kts 313°
2026-04-29 20:49 47.34048 12.43102 30214 ft 256 kts 313°
2026-04-29 20:49 47.35236 12.41192 29896 ft 249 kts 313°
2026-04-29 20:49 47.36391 12.39330 29553 ft 244 kts 312°
2026-04-29 20:49 47.37415 12.37414 29201 ft 237 kts 306°
2026-04-29 20:50 47.38274 12.35360 28878 ft 234 kts 300°
2026-04-29 20:50 47.38969 12.33197 28554 ft 232 kts 295°
2026-04-29 20:50 47.39498 12.30957 28234 ft 231 kts 289°
2026-04-29 20:50 47.39863 12.28662 27965 ft 229 kts 284°
2026-04-29 20:51 47.40082 12.26375 27751 ft 223 kts 282°
2026-04-29 20:51 47.40290 12.24125 27475 ft 219 kts 283°
2026-04-29 20:51 47.40501 12.21908 27212 ft 217 kts 283°
2026-04-29 20:51 47.40709 12.19708 26945 ft 215 kts 283°
2026-04-29 20:52 47.40913 12.17542 26722 ft 211 kts 283°
2026-04-29 20:52 47.41113 12.15401 26467 ft 210 kts 283°
2026-04-29 20:52 47.41316 12.13257 26103 ft 214 kts 283°
2026-04-29 20:52 47.41535 12.10987 25396 ft 232 kts 283°
2026-04-29 20:53 47.41773 12.08520 24573 ft 251 kts 283°
2026-04-29 20:53 47.42024 12.05874 23737 ft 269 kts 283°
2026-04-29 20:53 47.42287 12.03044 22741 ft 285 kts 282°
2026-04-29 20:53 47.42705 12.00192 22048 ft 283 kts 295°
2026-04-29 20:54 47.45101 11.96057 21021 ft 265 kts 342°
2026-04-29 20:54 47.46868 11.95622 20524 ft 261 kts 359°
2026-04-29 20:54 47.48645 11.96196 19994 ft 262 kts 26°
2026-04-29 20:55 47.50073 11.97814 19502 ft 266 kts 49°
2026-04-29 20:55 47.50917 12.00266 19026 ft 271 kts 66°
2026-04-29 20:55 47.51501 12.02935 18636 ft 272 kts 68°
2026-04-29 20:55 47.52040 12.05583 18458 ft 268 kts 68°
2026-04-29 20:56 47.52572 12.08214 18180 ft 266 kts 68°
2026-04-29 20:56 47.53092 12.10846 17821 ft 268 kts 72°
2026-04-29 20:56 47.53198 12.13645 17427 ft 278 kts 90°
2026-04-29 20:56 47.53013 12.16516 17046 ft 281 kts 92°
2026-04-29 20:57 47.52796 12.19343 16907 ft 273 kts 92°
2026-04-29 20:57 47.52580 12.22096 16764 ft 266 kts 92°
2026-04-29 20:57 47.52367 12.24810 16463 ft 266 kts 92°
2026-04-29 20:57 47.52154 12.27536 16118 ft 268 kts 92°
2026-04-29 20:58 47.51940 12.30285 15771 ft 270 kts 92°
2026-04-29 20:58 47.51565 12.33025 15417 ft 276 kts 108°
2026-04-29 20:58 47.50789 12.35646 15036 ft 281 kts 111°
2026-04-29 20:58 47.49944 12.38274 14619 ft 286 kts 113°
2026-04-29 20:59 47.48795 12.40713 14199 ft 295 kts 132°
2026-04-29 20:59 47.47113 12.42417 13746 ft 303 kts 159°
2026-04-29 20:59 47.45033 12.42941 13228 ft 307 kts 182°
2026-04-29 20:59 47.42881 12.42739 12699 ft 313 kts 186°
2026-04-29 21:00 47.40705 12.42441 12149 ft 314 kts 186°
2026-04-29 21:00 47.38570 12.41982 11621 ft 306 kts 199°
2026-04-29 21:00 47.36700 12.40625 11126 ft 296 kts 220°
2026-04-29 21:00 47.35415 12.38369 10646 ft 284 kts 246°
2026-04-29 21:01 47.34976 12.35612 10198 ft 274 kts 274°
2026-04-29 21:01 47.35445 12.32973 9745 ft 264 kts 302°
2026-04-29 21:01 47.36599 12.30934 9289 ft 256 kts 317°
2026-04-29 21:01 47.37881 12.29145 8850 ft 251 kts 319°
2026-04-29 21:02 47.39160 12.27407 8423 ft 247 kts 319°
2026-04-29 21:02 47.40353 12.25787 8198 ft 219 kts 319°
2026-04-29 21:02 47.41430 12.24325 7836 ft 201 kts 319°
2026-04-29 21:02 47.42356 12.22889 7415 ft 188 kts 307°
2026-04-29 21:03 47.42943 12.21106 6473 ft 201 kts 289°
2026-04-29 21:03 47.43274 12.19053 5315 ft 215 kts 284°
2026-04-29 21:03 47.43828 12.17012 4411 ft 211 kts 306°
2026-04-29 21:03 47.44857 12.15654 3979 ft 190 kts 333°
2026-04-29 21:04 47.46078 12.14989 3524 ft 184 kts 343°
2026-04-29 21:04 47.47166 12.14208 3356 ft 169 kts 321°
2026-04-29 21:04 47.47919 12.12881 3243 ft 169 kts 300°
2026-04-29 21:04 47.48472 12.11343 2961 ft 167 kts 298°
2026-04-29 21:05 47.48986 12.09875 2807 ft 148 kts 295°
2026-04-29 21:05 47.49183 12.08490 2797 ft 139 kts 270°
2026-04-29 21:05 47.49136 12.07009 2611 ft 148 kts 269°
2026-04-29 21:05 47.49117 12.05487 2571 ft 147 kts 266°
2026-04-29 21:06 47.48999 12.04038 2645 ft 142 kts 264°
2026-04-29 21:06 47.48901 12.02550 2581 ft 145 kts 264°
2026-04-29 21:06 47.48743 12.01100 2611 ft 147 kts 257°
2026-04-29 21:06 47.48447 11.99632 2681 ft 151 kts 251°
2026-04-29 21:07 47.48059 11.98156 2680 ft 157 kts 248°
2026-04-29 21:07 47.47673 11.96614 2666 ft 162 kts 248°
2026-04-29 21:07 47.47000 11.95357 2643 ft 154 kts 218°
2026-04-29 21:07 47.46118 11.94433 2610 ft 157 kts 221°
2026-04-29 21:08 47.45367 11.93395 3536 ft 140 kts 223°
2026-04-29 21:08 47.44824 11.92296 4050 ft 126 kts 264°
2026-04-29 21:08 47.45097 11.91047 3838 ft 146 kts 323°
2026-04-29 21:08 47.46103 11.90818 3724 ft 160 kts 27°
2026-04-29 21:09 47.46977 11.91915 3686 ft 177 kts 47°
2026-04-29 21:09 47.47798 11.93486 3532 ft 205 kts 55°
2026-04-29 21:09 47.48608 11.95348 3622 ft 235 kts 58°
2026-04-29 21:09 47.49492 11.97615 3897 ft 272 kts 60°
2026-04-29 21:10 47.50446 12.00109 4215 ft 272 kts 58°
2026-04-29 21:10 47.51454 12.02333 4333 ft 252 kts 53°
2026-04-29 21:10 47.52526 12.04336 4158 ft 245 kts 50°
2026-04-29 21:10 47.53586 12.06246 4018 ft 230 kts 51°
2026-04-29 21:11 47.54509 12.07931 4069 ft 188 kts 52°
2026-04-29 21:11 47.55177 12.09308 4099 ft 154 kts 69°
2026-04-29 21:11 47.54972 12.10770 3942 ft 159 kts 136°
2026-04-29 21:11 47.53955 12.11116 3945 ft 155 kts 195°
2026-04-29 21:12 47.53047 12.10253 3831 ft 158 kts 224°
2026-04-29 21:12 47.52249 12.09103 3670 ft 158 kts 224°
2026-04-29 21:12 47.51538 12.07924 3530 ft 150 kts 235°
2026-04-29 21:12 47.51059 12.06588 3404 ft 143 kts 252°
2026-04-29 21:13 47.50770 12.05209 3387 ft 139 kts 256°
2026-04-29 21:13 47.50467 12.03847 3323 ft 141 kts 248°
2026-04-29 21:13 47.49987 12.02553 3172 ft 147 kts 236°
2026-04-29 21:13 47.49313 12.01378 3002 ft 152 kts 229°
2026-04-29 21:14 47.48605 12.00226 2888 ft 150 kts 227°
2026-04-29 21:14 47.48020 11.98947 2739 ft 151 kts 248°
2026-04-29 21:14 47.47753 11.97442 2630 ft 151 kts 261°
2026-04-29 21:14 47.47600 11.95940 2597 ft 144 kts 253°
2026-04-29 21:15 47.47265 11.94576 2520 ft 141 kts 243°
2026-04-29 21:15 47.46556 11.93642 2368 ft 143 kts 205°
2026-04-29 21:15 47.45633 11.92979 2125 ft 149 kts 215°
2026-04-29 21:15 47.45022 11.91787 2016 ft 146 kts 247°
2026-04-29 21:16 47.44708 11.90399 1956 ft 139 kts 255°
2026-04-29 21:16 47.44371 11.89124 2022 ft 130 kts 237°
2026-04-29 21:16 47.43802 11.88075 2131 ft 132 kts 229°
2026-04-29 21:16 47.43202 11.87009 2477 ft 136 kts 231°
2026-04-29 21:17 47.42613 11.85945 3262 ft 138 kts 231°
2026-04-29 21:17 47.42323 11.85055 3722 ft 144 kts 267°